User: anonymous   Login
Location: Ahausen
(50.4985°N, 8.2722°E)
Time: 02:23:48
(UTC+00:00)
Language:

First-Move - Orbit

View from above orbital plane
View from above orbital plane
View from above satellite
View from above satellite

Ground track
Ground track

The orbit data is extracted from the following two-line orbital elements,

1 39439U 13066Z   22176.42956750  .00003087  00000-0  36177-3 0  9995
2 39439  97.6365 149.9391 0063386  15.5150 344.7988 14.84271203463238
Epoch (UTC): 25 June 2022 10:18:34
Eccentricity: 0.0063386
inclination: 97.6365°
perigee height: 571 km
apogee height: 660 km
right ascension of ascending node: 149.9391°
argument of perigee: 15.5150°
revolutions per day: 14.84271203
mean anomaly at epoch: 344.7988°
orbit number at epoch: 46323

The dashed part of the orbit path shows where the satellite is in the earth's shadow,  

DLR